AirNav   Bose Proflight Series 2 Wireless Aviation Headset
 
 937 users online  

O79 Sierraville Dearwater Airport
Sierraville, California, USA

GOING TO SIERRAVILLE?


FAA INFORMATION EFFECTIVE 07 NOVEMBER 2019

Location

FAA Identifier: O79
Lat/Long: 39-34-54.0000N 120-21-14.5000W
39-34.900000N 120-21.241667W
39.5816667,-120.3540278
(estimated)
Elevation: 4984 ft. / 1519.1 m (surveyed)
Variation: 16E (1985)
From city: 1 mile SE of SIERRAVILLE, CA
Time zone: UTC -8 (UTC -7 during Daylight Saving Time)
Zip code: 96126

Airport Operations

Airport use: Open to the public
Control tower: no
ARTCC: OAKLAND CENTER
FSS: RENO FLIGHT SERVICE STATION
NOTAMs facility: RNO (NOTAM-D service available)
Attendance: UNATNDD
Pattern altitude: 5784 ft. MSL
Wind indicator: yes
Segmented circle: yes

Airport Communications

CTAF: 122.9
WX AWOS-2 at O02 (14 nm N): 119.35 (530-832-6942)
WX AWOS-3PT at TRK (19 nm SE): 118.0 (530-587-4599)

Nearby radio navigation aids

VOR radial/distance  VOR name  Freq  Var
SWRr335/24.4SQUAW VALLEY VOR/DME113.2016E
FMGr259/32.4MUSTANG VORTAC117.9016E

Airport Services

Parking: tiedowns
Airframe service: NONE
Powerplant service: NONE
Bottled oxygen: NONE
Bulk oxygen: NONE

Runway Information

Runway 3/21

Dimensions: 3260 x 50 ft. / 994 x 15 m
Surface: asphalt, in excellent condition
Weight bearing capacity: 
Single wheel: 12.0
Gradient: SW
RUNWAY 3  RUNWAY 21
Latitude: 39-34.723000N39-35.076167N
Longitude: 120-21.502833W120-20.979667W
Elevation: 4983.0 ft.4951.0 ft.
Traffic pattern: leftright
Displaced threshold: no193 ft.
Markings: basic, in good conditionNSTD, in good condition
Runway end identifier lights: nono
Obstructions: none18 ft. road, 200 ft. from runway, 125 ft. left of centerline
RWY 21 +4' FENCE 0' FM RY END, +18' ROAD O' FM RY END; 125' L.

Airport Ownership and Management from official FAA records

Ownership: Publicly-owned
Owner: COUNTY OF SIERRA
PO BOX 98
DOWNIEVILLE, CA 95936
Phone (530) 289-3201
Manager: TIM BEALS
PO BOX 98
DOWNIEVILLE, CA 95936
Phone (530) 289-3201
SIERRA COUNTY PUBLIC WORKS DEPARTMENT, DOWNIEVILLE.

Airport Operational Statistics

Aircraft operations: avg 23/week *
100% transient general aviation
* for 12-month period ending 31 December 2017

Additional Remarks

A96 ULTRALIGHT ACTIVITY ON & INVOF ARPT.
FOR CD CTC OAKLAND ARTCC AT 510-745-3380.

Instrument Procedures

There are no published instrument procedures at O79.

Some nearby airports with instrument procedures:

O02 - Nervino Airport (14 nm N)
KTRK - Truckee-Tahoe Airport (19 nm SE)
KRTS - Reno/Stead Airport (23 nm E)
KRNO - Reno/Tahoe International Airport (28 nm E)
KGOO - Nevada County Airport (37 nm SW)
 
Loc | Ops | Rwys | IFR | FBO | Links
Com | Nav | Svcs | Stats | Notes
Area around O79 (Sierraville Dearwater Airport)
 
Road maps at: MapQuest Bing Google
 
Aerial photo
WARNING: Photo may not be current or correct
Aerial photo of O79 (Sierraville Dearwater Airport)
Photo taken 22-Sep-2011
looking northwest.

Do you have a better or more recent aerial photo of Sierraville Dearwater Airport that you would like to share? If so, please send us your photo.

 
Sectional chart

 
Airport distance calculator
Flying to Sierraville Dearwater Airport? Find the distance to fly.

From to O79

Sunrise and sunset
Times for 14-Nov-2019
 Local
(UTC-8)
 Zulu
(UTC)
Morning civil twilight06:1714:17
Sunrise06:4614:46
Sunset16:4600:46
Evening civil twilight17:1501:15

Current date and time
Zulu (UTC)  14-Nov-2019 23:55:10
Local (UTC-8)  14-Nov-2019 15:55:10
 
METAR
KTRK 
19nm SE 
142245Z 24010KT 10SM SKC 17/M05 A3011
KRTS 
23nm E 
142335Z AUTO 15004KT 10SM CLR 18/M06 A3008 RMK AO2
KBLU 
24nm SW 
142252Z AUTO 23007KT 10SM SCT120 12/02 A3015 RMK AO2 SLP155 T01220022
KRNO 
28nm E 
142255Z 19004KT 10SM FEW150 FEW210 SCT250 21/M06 A3004 RMK AO2 SLP138 ACSL DSNT SE THRU S AND W THRU NW T02111061
KCXP 
37nm SE 
142335Z AUTO 11007KT 070V130 10SM CLR 20/M07 A3005 RMK AO2
TAF
KTRK 
19nm SE 
141720Z 1418/1518 VRB03KT P6SM BKN120 BKN200 FM142100 22009G18KT P6SM BKN120 BKN200 FM150300 VRB03KT P6SM SCT120 BKN200
NOTAMs
Click for the latest NOTAMs
NOTAMs are issued by the DoD/FAA and will open in a separate window not controlled by AirNav.

 

 
 

Would you like to see your business listed on this page?

 If your business provides an interesting product or service to pilots, flight crews, aircraft, or users of the Sierraville Dearwater Airport, you should consider listing it here.  To start the listing process, click on the button below
 
Add a business
 

Other Pages about Sierraville Dearwater Airport

Update a link
 
Copyright © AirNav, LLC. All rights reserved. Privacy Policy  Contact